Location: Unspecified
(47.7670°N, 8.8522°E)
Time: 10:47:20
(UTC+01:00)

ISS - Pass Details

Date: 31 January 2019
Orbit: 403 x 411 km, 51.6° (Epoch: 22 February)

Event Time Altitude Azimuth Distance (km) Brightness Sun altitude
Rises 19:45:07 0° 288° (WNW) 2,338 1.3 -23.9°
Reaches altitude 10° 19:47:15 10° 295° (WNW) 1,477 -0.1 -24.3°
Enters shadow 19:49:03 27° 312° (NW) 823 -1.9 -24.6°
